Find Local Weather

World > North America > United States > Michigan

Detroit, Michigan Regional Weather

Lat: 42.33N, Lon: 83.05W
Wx Zone: MIZ076
Warning FLW WEATHER ALERT - (More Info. Click Here) Warning
Feedback
Expires:201809260100;;211960
ASUS43 KDTX 260010
RWRMI 
MICHIGAN HOURLY REGIONAL WEATHER ROUNDUP
NATIONAL WEATHER SERVICE DETROIT/PONTIAC MI
ISSUED BY NATIONAL WEATHER SERVICE GRAND RAPIDS MI
800 PM EDT TUE SEP 25 2018

NOTE: "FAIR" INDICATES FEW OR NO CLOUDS BELOW 12,000 FEET WITH NO
SIGNIFICANT WEATHER AND/OR OBSTRUCTION TO VISIBILITY.


MIZ047>049-052>055-059>063-066>070-074>076-081>083-260100-
SOUTHEAST LOWER MICHIGAN
  
CITY           SKY/WX    TMP DP  RH WIND       PRES   REMARKS
ALMA           FAIR      68  66  95 SW7       29.81S                  
6HR MIN TEMP:  67; 6HR MAX TEMP:  79;                                

ANN ARBOR      LGT RAIN  70  69  97 S3        29.85S FOG              
BAD AXE        MOCLDY    72  67  85 S9        29.80F                  
6HR MIN TEMP:  71; 6HR MAX TEMP:  77;                                

DETROIT CITY   TSTM      71  70  96 SE5       29.85F FOG              
6HR MIN TEMP:  71; 6HR MAX TEMP:  74; 6HR PCP:  0.16;                

DETROIT        TSTM      72  67  84 S8        29.85F                  
6HR MIN TEMP:  72; 6HR MAX TEMP:  76; 6HR PCP: TRACE;                

FLINT          FAIR      72  68  87 S10       29.81F                  
6HR MIN TEMP:  72; 6HR MAX TEMP:  77; 6HR PCP:  0.04;                

GROSSE ILE     LGT RAIN  71  70  96 S7        29.85F                  
6HR MIN TEMP:  71; 6HR MAX TEMP:  73; 6HR PCP:  0.06;                

HILLSDALE      DRIZZLE   70  66  88 SW6       29.85F                  
HOWELL         MOCLDY    72  69  92 S7        29.82F                  
6HR MIN TEMP:  72; 6HR MAX TEMP:  77; 6HR PCP:  0.01;                


CITY           SKY/WX    TMP DP  RH WIND       PRES   REMARKS
JACKSON        FAIR      70  68  93 S7        29.83F                  
6HR MIN TEMP:  70; 6HR MAX TEMP:  77; 6HR PCP:  0.23;                

LANSING        FAIR      73  67  81 S8        29.82R                  
6HR MIN TEMP:  73; 6HR MAX TEMP:  79;                                

MASON          FAIR      74  68  82 CALM      29.83S                  
6HR MIN TEMP:  74; 6HR MAX TEMP:  80;                                

MONROE         LGT RAIN  73  71  96 SE5       29.81F                  
6HR MIN TEMP:  72; 6HR MAX TEMP:  76; 6HR PCP:  0.04;                

MT. CLEMENS    LGT RAIN  71  71 100 S17       29.85F FOG              
6HR MIN TEMP:  71; 6HR MAX TEMP:  74; 6HR PCP:  0.09;                

PONTIAC        CLOUDY    72  71  97 SE7       29.83F                  
6HR MIN TEMP:  72; 6HR MAX TEMP:  76; 6HR PCP: TRACE;                

PORT HOPE        N/A     72  67  84 S6        29.78F                  
6HR MIN TEMP:  64; 6HR MAX TEMP:  77;                                

PORT HURON     CLOUDY    72  68  88 S9        29.86F                  
TRI CITIES     TSTM      70  67  90 SW14      29.79R FOG              
6HR MIN TEMP:  71; 6HR MAX TEMP:  79; 6HR PCP:  0.20;                

YPSILANTI      TSTM      72  69  90 W16       29.87R FOG              
6HR MIN TEMP:  73; 6HR MAX TEMP:  79; 6HR PCP:  0.03;                

$$

SKY/WX - Weather  TMP - Temperature  DP - Dew Point  RH - Relative Humidity
WIND - Wind Direction/Speed PRES - Barometric Pressure